#timestamp,LO_Frequency,Hit,StdDev 
1513976415.9,286046993.3,P
1513976435.7,286046997.4,N
1513976455.5,286046999.5,N
1513976475.4,286046998.7,N
1513976495.2,286046998.1,N
1513976515.0,286046999.5,N
1513976515.9,286046999.5,N
1513976535.7,286046999.7,N
1513976555.6,286046997.1,N
1513976575.4,286046994.4,N
1513976595.2,286046992.5,N
1513976615.1,286046990.5,Y
1513976616.0,286046990.5,P
1513976635.8,286046996.4,N
1513976655.6,286046997.6,N
1513976675.5,286046995.2,N
1513976695.3,286046993.6,N
1513976715.1,286046995.1,N
1513976735.9,286046998.0,N
1513976755.7,286046997.7,N
1513976775.5,286047000.7,N
1513976795.4,286046998.7,N
1513976815.2,286047000.8,N
1513976835.0,286046998.9,N
1513976835.9,286046998.9,N
1513976855.8,286046999.4,N
1513976875.6,286046998.1,N
1513976895.4,286046996.6,N
1513976915.3,286047000.5,N
1513976935.1,286046998.8,N
1513976936.0,286046998.8,N
1513976955.8,286047000.0,N
1513976975.6,286047003.8,N
1513976995.5,286047003.1,N
1513977015.3,286047001.9,N
1513977035.1,286047002.6,N
1513977055.9,286047000.0,N
1513977075.7,286047005.1,N
1513977095.5,286047006.5,N
1513977115.4,286047009.3,N
1513977135.2,286047013.5,Y
1513977155.0,286047012.5,P
1513977155.9,286047012.5,N
1513977175.8,286047017.4,N
1513977195.6,286047024.8,Y
1513977215.4,286047009.3,P
1513977235.3,286047010.5,P
1513977255.1,286047011.9,P
1513977256.0,286047011.9,Y
1513977275.8,286046999.1,P
1513977295.7,286046996.2,N
1513977315.5,286046996.1,N
1513977335.3,286046995.1,N
1513977355.2,286046996.3,N
1513977375.9,286046994.9,N
1513977395.7,286046996.6,N
1513977415.6,286046995.7,N
1513977435.4,286046993.6,N
1513977455.2,286046997.3,N
1513977475.0,286047000.0,N
1513977476.0,286047000.0,N
1513977495.8,286047001.2,N
1513977515.6,286047000.3,N
1513977535.4,286046999.1,N
1513977555.3,286046996.2,N
1513977575.1,286046993.3,N
1513977595.8,286046991.7,N
1513977615.7,286046990.7,N
1513977635.5,286046991.0,N
1513977655.3,286046990.7,N
1513977675.2,286046987.4,N
1513977695.9,286046988.0,N
1513977715.7,286046988.8,N
1513977735.6,286046992.4,N
1513977755.4,286046997.4,N
1513977775.2,286046995.0,N
1513977795.0,286046990.9,N
1513977795.9,286046990.9,N
1513977815.8,286046992.8,N
1513977835.6,286046992.8,N
1513977855.4,286046988.7,Y
1513977875.3,286046996.1,P
1513977895.1,286046992.8,P
1513977915.8,286046987.6,P
1513977935.7,286046989.8,Y
1513977955.5,286046995.3,P
1513977975.3,286046996.5,N
1513977995.2,286046998.9,N
1513978015.9,286046994.6,N
1513978035.7,286046987.5,Y
1513978055.6,286046987.4,P
1513978075.4,286046988.9,N
1513978095.2,286046988.6,P
1513978115.1,286046990.0,Y
1513978116.0,286046990.0,P
1513978135.8,286046995.2,P
1513978155.6,286046998.5,N
1513978175.5,286046998.1,N
1513978195.3,286047002.1,N
1513978215.1,286047003.9,N
1513978235.9,286047006.2,N
1513978255.7,286047003.8,N
1513978275.5,286047001.6,N
1513978295.4,286047003.6,N
1513978315.2,286047004.2,N
1513978335.0,286047006.6,N
1513978335.9,286047006.6,N
1513978355.8,286047009.4,N
1513978375.6,286047009.9,N
1513978395.4,286047013.0,N
1513978415.2,286047013.2,N
1513978435.1,286047014.5,N
1513978436.0,286047014.5,N
1513978455.8,286047014.3,N
1513978475.6,286047015.4,N
1513978495.5,286047016.5,N
1513978515.3,286047016.9,N
1513978535.1,286047014.6,N
1513978555.9,286047015.9,N
1513978575.7,286047015.8,N
1513978595.5,286047017.7,N
1513978615.4,286047021.9,N
1513978635.2,286047023.4,N
1513978655.0,286047023.6,N
1513978655.9,286047023.6,N
1513978675.8,286047019.2,N
1513978695.6,286047021.4,N
1513978715.4,286047017.9,N
1513978735.2,286047017.3,N
1513978755.1,286047017.3,N
1513978756.0,286047017.3,N
1513978775.8,286047018.1,N
1513978795.6,286047016.0,N
1513978815.5,286047015.7,N
1513978835.3,286047018.8,Y
1513978855.1,286047002.6,P
1513978875.9,286046999.5,N
1513978895.7,286046995.6,N
1513978915.5,286046994.1,N
1513978935.4,286046993.3,N
1513978955.2,286046990.5,N
1513978975.0,286046990.2,N
1513978975.9,286046990.2,N
1513978995.8,286046988.9,N
1513979015.6,286046985.5,N
1513979035.4,286046983.9,N
1513979055.3,286046986.1,N
1513979075.1,286046987.0,N
1513979076.0,286046987.0,N
1513979095.8,286046990.3,N
1513979115.7,286046989.7,N
1513979135.5,286046989.2,N
1513979155.3,286046986.0,N
1513979175.1,286046984.7,N
1513979195.9,286046980.7,N
1513979215.7,286046979.3,N
1513979235.5,286046981.3,N
1513979255.4,286046982.6,N
1513979275.2,286046979.6,N
1513979295.0,286046974.9,Y
1513979295.9,286046974.9,P
1513979315.8,286046984.9,N
1513979335.6,286046991.2,N
1513979355.4,286046988.5,N
1513979375.3,286046987.7,N
1513979395.1,286046992.5,N
1513979396.0,286046992.5,N
1513979415.8,286046996.0,N
1513979435.7,286046995.0,N
1513979455.5,286046995.6,N
1513979475.3,286046996.2,N
1513979495.2,286046996.6,N
1513979515.9,286046995.1,N
1513979535.7,286046993.0,N
1513979555.5,286046988.9,N
1513979575.4,286046990.0,N
1513979595.2,286046985.8,N
1513979615.0,286046993.0,N
1513979615.9,286046993.0,N
1513979635.8,286046994.8,N
1513979655.6,286046990.2,N
1513979675.4,286046992.7,N
1513979695.3,286046994.1,N
1513979715.1,286046994.8,N
1513979716.0,286046994.8,N
1513979735.8,286046994.2,N
1513979755.7,286046996.8,N
1513979775.5,286046997.4,N
1513979795.3,286047003.5,N
1513979815.1,286046998.5,N
1513979835.9,286046994.1,N
1513979855.7,286046990.4,N
1513979875.5,286046990.9,N
1513979895.4,286046989.2,Y
1513979915.2,286046992.5,P
1513979935.0,286046987.5,P
1513979935.9,286046987.5,P
1513979955.8,286046984.8,Y
1513979975.6,286046992.1,P
1513979995.4,286046998.6,N
